Location: Nairn
(57.5833°N, 3.8667°W)
Time: 03:04:03
(UTC+00:00)

Transit 2A - Pass Details

Date: 29 November 2020
Orbit: 598 x 960 km, 66.7° (Epoch: 20 January)

Event Time Altitude Azimuth Distance (km) Brightness Sun altitude
Rises 20:34:25 0° 264° (W) 3,581 10.2 -38.0°
Reaches altitude 10° 20:37:13 10° 272° (W) 2,601 9.4 -38.3°
Enters shadow 20:40:48 30° 298° (WNW) 1,528 7.9 -38.8°
